Weather History for Fort Sill, OK

Change the Weather History Date:

Thursday, October 4, 2012

  Actual Average Record
Temperature  
Mean Temperature 64 °F -  
Max Temperature 70 °F 82 °F 97 °F (1963)
Min Temperature 59 °F 55 °F 41 °F (1975)
Degree Days  
Heating Degree Days 1    
Growing Degree Days 14 (Base 50)    
Moisture  
Dew Point 52 °F    
Average Humidity 66    
Maximum Humidity 85    
Minimum Humidity 58    
Precipitation  
Precipitation 0.00 in - - ()
Sea Level Pressure  
Sea Level Pressure 30.07 in    
Wind  
Wind Speed 11 mph (NE)    
Max Wind Speed 21 mph    
Max Gust Speed 25 mph    
Visibility 10 miles    
Events      
Averages and records for this station are not official NWS values.
T = Trace of Precipitation, MM = Missing Value Source: NWS Daily Summary

Daily Weather History Graph

Daily Weather History Graph

Search for Another Location

Airport:

Trip Planner

Search our weather history database for the weather conditions in past years. The results will help you decide how hot, cold, wet, or windy it might be!

Date:

Astronomy

Oct. 04, 2012 Rise Set
Actual Time 7:30 AM CDT 7:12 PM CDT
Civil Twilight 7:05 AM CDT 7:37 PM CDT
Nautical Twilight 6:36 AM CDT 8:07 PM CDT
Astronomical Twilight 6:07 AM CDT 8:36 PM CDT
Moon 10:00 PM CDT (10/4) 11:38 AM CDT (10/4)
Length of Visible Light 12h 32m
Length of Day
11h 41m
Waning Gibbous, 82% of the Moon is Illuminated
Oct 4
Waning Gibbous
Oct 8
Last Quarter
Oct 15
New
Oct 21
First Quarter
Oct 29
Full

Hourly Weather History & Observations

Time (CDT) Temp. Dew Point Humidity Pressure Visibility Wind Dir Wind Speed Gust Speed Precip Events Conditions
12:55 AM 66.2 °F 53.2 °F 63% 29.94 in 10.0 mi SSE 11.5 mph - N/A   Clear
1:55 AM 65.5 °F 53.8 °F 66% 29.94 in 10.0 mi SSE 11.5 mph - N/A   Clear
2:55 AM 65.3 °F 53.6 °F 66% 29.93 in 10.0 mi SSE 10.4 mph - N/A   Clear
3:55 AM 64.9 °F 53.8 °F 67% 29.94 in 10.0 mi SSE 10.4 mph - N/A   Clear
4:55 AM 63.0 °F 54.1 °F 73% 29.96 in 10.0 mi SSE 8.1 mph - N/A   Clear
5:55 AM 62.6 °F 54.9 °F 76% 29.97 in 10.0 mi SE 6.9 mph - N/A   Clear
6:55 AM 61.9 °F 55.8 °F 80% 29.99 in 10.0 mi SSE 5.8 mph - N/A   Clear
7:55 AM 61.2 °F 56.5 °F 85% 30.05 in 10.0 mi ENE 4.6 mph - N/A   Clear
8:55 AM 66.0 °F 57.9 °F 75% 30.06 in 10.0 mi ESE 5.8 mph - N/A   Clear
9:40 AM 68.0 °F 59.0 °F 73% 30.08 in 10.0 mi ESE 3.5 mph - N/A   Mostly Cloudy
9:55 AM 67.8 °F 59.9 °F 76% 30.09 in 10.0 mi ESE 3.5 mph - N/A   Overcast
10:55 AM 68.9 °F 61.9 °F 78% 30.10 in 10.0 mi Calm Calm - N/A   Overcast
11:55 AM 69.8 °F 62.8 °F 78% 30.11 in 10.0 mi Calm Calm - N/A   Overcast
12:48 PM 60.8 °F 50.0 °F 68% 30.13 in 10.0 mi NNE 17.3 mph 25.3 mph N/A   Overcast
12:55 PM 60.8 °F 48.7 °F 64% 30.13 in 10.0 mi NNE 19.6 mph - N/A   Overcast
1:55 PM 59.9 °F 47.8 °F 64% 30.13 in 10.0 mi North 19.6 mph - N/A   Overcast
2:55 PM 61.3 °F 48.9 °F 64% 30.12 in 10.0 mi NNE 16.1 mph - N/A   Overcast
3:55 PM 61.7 °F 48.7 °F 62% 30.12 in 10.0 mi NNE 20.7 mph - N/A   Overcast
4:55 PM 62.6 °F 49.1 °F 61% 30.11 in 10.0 mi NNE 15.0 mph - N/A   Overcast
5:54 PM 62.6 °F 48.2 °F 59% 30.11 in 10.0 mi NNE 16.1 mph - N/A   Overcast
5:55 PM 63.0 °F 48.9 °F 60% 30.11 in 10.0 mi NNE 15.0 mph - N/A   Overcast
6:21 PM 62.6 °F 50.0 °F 63% 30.11 in 10.0 mi North 15.0 mph - N/A   Overcast
6:37 PM 62.6 °F 50.0 °F 63% 30.11 in 10.0 mi NNE 13.8 mph - N/A   Overcast
6:45 PM 62.6 °F 48.2 °F 59% 30.12 in 10.0 mi NNE 12.7 mph - N/A   Overcast
6:55 PM 62.8 °F 49.1 °F 61% 30.12 in 10.0 mi NNE 12.7 mph - N/A   Overcast
7:17 PM 62.6 °F 48.2 °F 59% 30.11 in 10.0 mi North 16.1 mph - N/A   Overcast
7:55 PM 62.6 °F 48.2 °F 59% 30.12 in 10.0 mi North 15.0 mph - N/A   Overcast
8:06 PM 62.6 °F 48.2 °F 59% 30.11 in 10.0 mi North 13.8 mph - N/A   Overcast
8:55 PM 62.4 °F 48.7 °F 61% 30.12 in 10.0 mi North 10.4 mph - N/A   Overcast
9:55 PM 61.5 °F 48.7 °F 63% 30.12 in 10.0 mi North 9.2 mph - N/A   Overcast
10:55 PM 61.7 °F 46.9 °F 58% 30.12 in 10.0 mi NNE 12.7 mph - N/A   Overcast
11:55 PM 61.0 °F 46.9 °F 60% 30.12 in 10.0 mi NNE 12.7 mph - N/A   Overcast